timestamp,surface_pressure_avg,surface_temp_avg,battery_voltage,lat,long
2022-09-14 00:09:00+00:00,317.0096,3.33,11.53,47.84626,-54.09684
2022-09-14 00:19:00+00:00,323.8013,3.85,11.46,47.84626,-54.09684
2022-09-14 00:29:00+00:00,332.6462,4.61,11.46,47.84626,-54.09684
2022-09-14 00:39:00+00:00,339.2529,6.05,11.46,47.84626,-54.09684
2022-09-14 00:49:00+00:00,347.2947,6.73,11.46,47.84626,-54.09684
2022-09-14 00:59:00+00:00,355.6847,7.14,11.46,47.84626,-54.09684
2022-09-14 01:09:00+00:00,361.9446,7.4,11.46,47.84626,-54.09684
2022-09-14 01:19:00+00:00,365.1696,7.56,11.46,47.84626,-54.09684
2022-09-14 01:29:00+00:00,367.7246,7.81,11.46,47.84626,-54.09684
2022-09-14 01:39:00+00:00,372.6846,8.1,11.46,47.84626,-54.09684
2022-09-14 01:49:00+00:00,374.6813,8.45,11.46,47.84626,-54.09684
2022-09-14 01:59:00+00:00,372.6746,8.7,11.46,47.84626,-54.09684
2022-09-14 02:09:00+00:00,371.9645,8.9,11.46,47.84626,-54.09684
2022-09-14 02:19:00+00:00,374.7847,8.84,11.46,47.84626,-54.09684
2022-09-14 02:29:00+00:00,374.8096,8.86,11.46,47.84626,-54.09684
2022-09-14 02:39:00+00:00,372.9763,8.99,11.46,47.84626,-54.09684
2022-09-14 02:49:00+00:00,370.3963,9.53,11.46,47.84626,-54.09684
2022-09-14 02:59:00+00:00,365.8947,9.6,11.46,47.84626,-54.09684
2022-09-14 03:09:00+00:00,362.6246,9.71,11.46,47.84626,-54.09684
2022-09-14 03:19:00+00:00,359.4012,10.36,11.46,47.84626,-54.09684
2022-09-14 03:29:00+00:00,356.0697,10.97,11.46,47.84626,-54.09684
2022-09-14 03:39:00+00:00,349.86300000000006,11.15,11.46,47.84626,-54.09684
2022-09-14 03:49:00+00:00,343.9713,11.21,11.46,47.84626,-54.09684
2022-09-14 03:59:00+00:00,337.7429,11.38,11.46,47.84626,-54.09684
2022-09-14 04:09:00+00:00,330.723,11.48,11.46,47.84626,-54.09684
2022-09-14 04:19:00+00:00,325.6397,11.57,11.46,47.84626,-54.09684
2022-09-14 04:29:00+00:00,318.2247,11.6,11.46,47.84626,-54.09684
2022-09-14 04:39:00+00:00,307.4997,11.61,11.46,47.84626,-54.09684
2022-09-14 04:49:00+00:00,298.0663,11.6,11.46,47.84626,-54.09684
2022-09-14 04:59:00+00:00,292.3297,11.5,11.46,47.84626,-54.09684
2022-09-14 05:09:00+00:00,284.9064,11.5,11.46,47.84626,-54.09684
2022-09-14 05:19:00+00:00,274.803,11.78,11.46,47.84626,-54.09684
2022-09-14 05:29:00+00:00,265.4714,11.89,11.46,47.84626,-54.09684
2022-09-14 05:39:00+00:00,259.1364,11.97,11.46,47.84626,-54.09684
2022-09-14 05:49:00+00:00,251.8064,12.15,11.46,47.84626,-54.09684
2022-09-14 05:59:00+00:00,240.5098,12.48,11.46,47.84626,-54.09684
2022-09-14 06:09:00+00:00,230.0864,12.7,11.46,47.84626,-54.09684
2022-09-14 06:19:01+00:00,222.3714,12.78,11.46,47.84626,-54.09684
2022-09-14 06:29:01+00:00,214.9131,12.8,11.46,47.84626,-54.09684
2022-09-14 06:39:01+00:00,205.4298,12.86,11.46,47.84626,-54.09684
2022-09-14 06:49:01+00:00,197.7281,12.9,11.46,47.84626,-54.09684
2022-09-14 06:59:01+00:00,194.8398,13.0,11.46,47.84626,-54.09684
2022-09-14 07:09:01+00:00,189.3031,13.1,11.46,47.84626,-54.09684
2022-09-14 07:19:00+00:00,181.7931,13.2,11.46,47.84626,-54.09684
2022-09-14 07:29:00+00:00,181.5531,13.3,11.46,47.84626,-54.09684
2022-09-14 07:39:00+00:00,186.4932,13.3,11.46,47.84626,-54.09684
2022-09-14 07:49:00+00:00,187.2831,13.3,11.46,47.84626,-54.09684
2022-09-14 07:59:00+00:00,187.2681,13.28,11.46,47.84626,-54.09684
2022-09-14 08:09:00+00:00,193.0231,13.3,11.46,47.84626,-54.09684
2022-09-14 08:19:00+00:00,198.3198,13.3,11.37,47.84626,-54.09684
2022-09-14 08:29:00+00:00,200.2697,13.3,11.37,47.84626,-54.09684
2022-09-14 08:39:00+00:00,206.3098,13.3,11.37,47.84626,-54.09684
2022-09-14 08:49:00+00:00,215.7731,13.2,11.37,47.84626,-54.09684
2022-09-14 08:59:00+00:00,221.8564,13.13,11.37,47.84626,-54.09684
2022-09-14 09:09:00+00:00,225.4631,13.17,11.37,47.84626,-54.09684
2022-09-14 09:19:00+00:00,230.1281,13.2,11.37,47.84626,-54.09684
2022-09-14 09:29:00+00:00,237.3781,13.19,11.37,47.84626,-54.09684
2022-09-14 09:39:00+00:00,244.3681,13.2,11.37,47.84626,-54.09684
2022-09-14 09:49:00+00:00,247.9448,13.15,11.37,47.84626,-54.09684
2022-09-14 09:59:00+00:00,249.3598,13.1,11.37,47.84626,-54.09684
2022-09-14 10:09:00+00:00,251.068,13.06,11.37,47.84626,-54.09684
2022-09-14 10:19:00+00:00,257.968,13.09,11.46,47.84626,-54.09684
2022-09-14 10:29:00+00:00,262.1431,13.1,11.46,47.84626,-54.09684
2022-09-14 10:39:00+00:00,264.7781,13.1,11.46,47.84626,-54.09684
2022-09-14 10:49:00+00:00,267.8431,13.1,11.46,47.84626,-54.09684
2022-09-14 10:59:00+00:00,274.1714,13.1,11.46,47.84626,-54.09684
2022-09-14 11:09:00+00:00,277.043,13.1,11.46,47.84626,-54.09684
2022-09-14 11:19:00+00:00,280.5114,13.1,11.46,47.84626,-54.09684
2022-09-14 11:29:00+00:00,285.0231,13.19,11.46,47.84626,-54.09684
2022-09-14 11:39:00+00:00,290.9864,13.38,11.46,47.84626,-54.09684
2022-09-14 11:49:00+00:00,295.2681,13.59,11.46,47.84626,-54.09684
2022-09-14 11:59:00+00:00,300.7698,13.7,11.46,47.84626,-54.09684
2022-09-14 12:09:00+00:00,307.7562,13.75,11.46,47.84626,-54.09684
2022-09-14 12:19:01+00:00,315.6313,13.78,11.46,47.84626,-54.09684
2022-09-14 12:29:01+00:00,322.0147,13.86,11.46,47.84626,-54.09684
2022-09-14 12:39:01+00:00,329.5096,13.9,11.46,47.84626,-54.09684
2022-09-14 12:49:01+00:00,338.0797,14.0,11.46,47.84626,-54.09684
2022-09-14 12:59:01+00:00,340.2597,14.05,11.46,47.84626,-54.09684
2022-09-14 13:09:01+00:00,345.1462,14.1,11.46,47.84626,-54.09684
2022-09-14 13:19:00+00:00,351.1746,14.0,11.61,47.84626,-54.09684
2022-09-14 13:29:00+00:00,354.3814,13.96,11.61,47.84626,-54.09684
2022-09-14 13:39:00+00:00,357.2213,13.8,11.61,47.84626,-54.09684
2022-09-14 13:49:00+00:00,360.7063,13.8,11.61,47.84626,-54.09684
2022-09-14 13:59:00+00:00,364.028,13.85,11.61,47.84626,-54.09684
2022-09-14 14:09:00+00:00,362.4645,13.9,11.61,47.84626,-54.09684
2022-09-14 14:19:00+00:00,365.2963,13.95,11.77,47.84626,-54.09684
2022-09-14 14:29:00+00:00,366.7628,14.0,11.77,47.84626,-54.09684
2022-09-14 14:39:00+00:00,363.028,14.06,11.77,47.84626,-54.09684
2022-09-14 14:49:00+00:00,362.7379,14.1,11.77,47.84626,-54.09684
2022-09-14 14:59:00+00:00,362.9095,13.9,11.77,47.84626,-54.09684
2022-09-14 15:09:00+00:00,361.9929,13.7,11.77,47.84626,-54.09684
2022-09-14 15:19:00+00:00,357.1894,13.78,11.77,47.84626,-54.09684
2022-09-14 15:29:00+00:00,357.1445,13.7,11.77,47.84626,-54.09684
2022-09-14 15:39:00+00:00,354.3997,13.7,11.77,47.84626,-54.09684
2022-09-14 15:49:00+00:00,349.2397,13.7,11.77,47.84626,-54.09684
2022-09-14 15:59:00+00:00,349.6461,13.7,11.77,47.84626,-54.09684
2022-09-14 16:09:00+00:00,346.9346,13.74,11.77,47.84626,-54.09684
2022-09-14 16:19:00+00:00,337.9397,13.77,11.77,47.84626,-54.09684
2022-09-14 16:29:00+00:00,329.1946,13.78,11.77,47.84626,-54.09684
2022-09-14 16:39:00+00:00,329.99300000000005,13.77,11.77,47.84626,-54.09684
2022-09-14 16:49:00+00:00,326.7047,13.79,11.77,47.84626,-54.09684
2022-09-14 16:59:00+00:00,314.7764,13.8,11.77,47.84626,-54.09684
2022-09-14 17:09:00+00:00,302.4914,13.88,11.77,47.84626,-54.09684
2022-09-14 17:19:00+00:00,297.8331,13.9,11.7,47.84626,-54.09684
2022-09-14 17:29:00+00:00,290.0764,13.9,11.7,47.84626,-54.09684
2022-09-14 17:39:00+00:00,278.6081,13.91,11.7,47.84626,-54.09684
2022-09-14 17:49:00+00:00,269.1931,13.9,11.7,47.84626,-54.09684
2022-09-14 17:59:00+00:00,265.038,13.9,11.7,47.84626,-54.09684
2022-09-14 18:09:00+00:00,255.5131,13.98,11.7,47.84626,-54.09684
2022-09-14 18:19:00+00:00,242.5564,13.91,11.7,47.84626,-54.09684
2022-09-14 18:29:00+00:00,234.8798,13.9,11.7,47.84626,-54.09684
2022-09-14 18:39:00+00:00,229.7698,13.92,11.7,47.84626,-54.09684
2022-09-14 18:49:00+00:00,220.5015,14.0,11.7,47.84626,-54.09684
2022-09-14 18:59:00+00:00,210.9131,14.0,11.7,47.84626,-54.09684
2022-09-14 19:09:00+00:00,207.3498,14.04,11.7,47.84626,-54.09684
2022-09-14 19:19:00+00:00,201.4415,14.08,11.61,47.84626,-54.09684
2022-09-14 19:29:00+00:00,191.2665,14.1,11.61,47.84626,-54.09684
2022-09-14 19:39:00+00:00,186.9148,14.1,11.61,47.84626,-54.09684
2022-09-14 19:49:00+00:00,187.2681,14.09,11.61,47.84626,-54.09684
2022-09-14 19:59:00+00:00,187.6231,14.0,11.61,47.84626,-54.09684
2022-09-14 20:09:00+00:00,186.0831,14.0,11.61,47.84626,-54.09684
2022-09-14 20:19:00+00:00,186.5098,13.96,11.53,47.84626,-54.09684
2022-09-14 20:29:00+00:00,190.3848,13.9,11.53,47.84626,-54.09684
2022-09-14 20:39:00+00:00,190.8448,13.9,11.53,47.84626,-54.09684
2022-09-14 20:49:00+00:00,191.5964,13.99,11.53,47.84626,-54.09684
2022-09-14 20:59:00+00:00,196.4448,14.03,11.53,47.84626,-54.09684
2022-09-14 21:09:00+00:00,201.8947,14.1,11.53,47.84626,-54.09684
2022-09-14 21:19:00+00:00,205.9481,14.1,11.53,47.84626,-54.09684
2022-09-14 21:29:00+00:00,211.5198,14.11,11.53,47.84626,-54.09684
2022-09-14 21:39:00+00:00,220.2431,14.1,11.53,47.84626,-54.09684
2022-09-14 21:49:00+00:00,225.2264,14.1,11.53,47.84626,-54.09684
2022-09-14 21:59:00+00:00,231.6581,14.0,11.53,47.84626,-54.09684
2022-09-14 22:09:00+00:00,238.2631,13.99,11.53,47.84626,-54.09684
2022-09-14 22:19:00+00:00,242.0015,13.97,11.53,47.84626,-54.09684
2022-09-14 22:29:00+00:00,245.6664,14.0,11.53,47.84626,-54.09684
2022-09-14 22:39:00+00:00,249.0164,14.01,11.53,47.84626,-54.09684
2022-09-14 22:49:00+00:00,253.4897,14.07,11.53,47.84626,-54.09684
2022-09-14 22:59:00+00:00,255.2581,14.09,11.53,47.84626,-54.09684
2022-09-14 23:09:00+00:00,257.5364,14.1,11.53,47.84626,-54.09684
2022-09-14 23:19:00+00:00,262.7347,14.09,11.53,47.84626,-54.09684
2022-09-14 23:29:00+00:00,264.9781,14.07,11.53,47.84626,-54.09684
2022-09-14 23:39:00+00:00,263.7648,14.0,11.53,47.84626,-54.09684
2022-09-14 23:49:00+00:00,265.7731,14.0,11.53,47.84626,-54.09684
2022-09-14 23:59:00+00:00,271.048,14.0,11.53,47.84626,-54.09684
